Wind_Speed
10 10 10 10 10 11 11 12 12 13 13 14 14 14 14 15 15 16 16 16 16 17 17 17 18 19 19 19 19 19 19 19 20 20 20 20 20 20 20 20 20 20 20
10 10 11 11 11 11 12 12 13 13 14 14 15 15 15 15 16 16 17 17 17 18 18 19 19 20 20 20 20 21 21 21 21 21 22 22 22 22 22 22 22 22 22
10 10 11 11 12 13 13 13 14 14 15 15 15 16 16 16 17 17 18 18 19 19 19 20 20 21 21 21 22 22 22 22 23 23 23 23 24 24 24 24 24 24 24
9 10 11 11 12 13 13 14 14 14 15 15 16 16 17 17 18 18 19 19 20 20 21 21 21 22 22 22 23 23 23 24 24 24 24 25 25 25 25 25 25 25 25
9 10 11 12 12 13 14 14 15 15 15 16 16 17 17 18 18 19 20 20 21 21 22 22 22 23 23 24 24 24 25 25 25 25 25 25 26 26 26 26 26 26 26
9 10 11 12 13 14 15 16 16 16 17 17 17 18 18 19 19 20 21 21 22 22 22 23 23 24 24 25 25 25 26 26 26 26 26 27 27 27 27 27 27 27 27
10 11 12 13 14 15 15 16 17 17 18 18 18 19 20 20 21 21 22 22 22 23 23 23 24 24 25 25 26 26 27 27 27 27 28 28 28 28 28 28 28 28 28
11 12 13 14 15 15 16 16 17 18 18 19 19 20 21 21 22 22 22 22 23 23 24 25 25 25 26 26 27 27 28 28 29 29 29 29 29 29 29 29 29 29 29
12 13 13 14 15 16 16 17 17 18 18 19 20 20 21 22 22 23 23 24 24 25 25 26 26 27 27 28 28 29 29 29 30 30 30 30 31 31 31 31 31 31 31
13 14 14 15 16 16 17 17 18 18 19 19 20 21 22 23 23 24 24 25 26 26 27 27 28 28 29 29 30 30 30 31 31 31 31 31 32 32 32 33 33 33 33
14 15 15 16 16 17 18 18 18 19 19 20 21 22 23 23 24 25 25 26 27 27 28 28 29 29 30 30 30 31 31 31 32 32 33 33 33 34 34 35 35 35 36
16 16 16 17 17 17 18 18 19 19 20 20 21 22 23 24 24 25 26 27 27 28 29 29 30 30 31 31 31 32 32 33 33 34 34 35 35 36 37 37 38 38 38
17 17 17 18 18 18 18 19 19 20 20 21 21 22 23 23 24 25 26 27 28 29 30 30 31 31 32 32 33 33 34 35 35 36 37 37 38 38 39 40 40 41 41
18 18 18 18 18 19 19 20 20 21 21 22 22 23 24 25 25 26 27 28 28 29 30 31 32 32 33 33 34 34 35 35 36 37 38 39 39 40 41 41 42 42 43
19 19 19 19 19 19 20 20 20 21 22 22 23 24 25 26 26 27 28 28 29 29 30 31 32 32 33 34 35 35 36 37 38 38 39 40 41 41 42 43 43 44 44
19 19 20 20 20 20 20 20 21 22 23 23 24 25 25 26 27 28 29 29 30 30 31 32 32 33 34 35 36 36 37 38 39 40 40 41 42 42 43 44 45 45 46
20 20 20 20 21 21 21 22 22 23 24 24 25 25 26 27 28 29 29 30 31 32 33 33 34 35 36 36 37 38 39 39 40 41 42 43 44 45 45 46 46 47 48
21 21 21 21 21 22 22 23 23 24 24 25 26 26 27 28 29 30 31 31 32 33 34 35 36 37 38 38 39 40 41 42 42 43 44 45 46 47 48 49 49 50 50
22 22 22 22 22 22 23 24 24 25 26 26 27 27 28 29 30 31 32 33 34 35 36 37 38 38 39 40 41 41 42 43 44 45 46 47 48 49 50 51 52 52 53
23 23 23 23 23 24 24 25 25 26 27 28 28 29 30 31 32 32 33 34 35 36 38 39 40 41 42 42 43 43 44 45 46 47 48 50 51 52 53 53 54 55 55
24 24 24 24 25 25 26 26 27 27 28 29 30 31 32 33 33 34 35 37 38 39 40 42 42 43 44 45 45 45 46 47 48 50 51 52 53 54 55 56 57 57 58
26 26 26 26 26 27 27 27 28 29 30 31 32 33 34 34 35 36 38 39 40 42 43 44 45 46 47 48 49 49 48 48 49 51 52 54 55 56 58 59 59 60 61
27 27 27 27 28 28 29 29 30 30 32 33 34 35 36 37 38 39 40 42 43 44 45 46 47 48 49 50 52 53 53 53 52 51 52 54 56 57 59 60 62 63 64
28 28 28 29 29 29 30 31 32 32 33 34 36 36 37 38 40 41 42 44 45 46 47 48 50 51 51 52 54 55 57 58 59 57 55 56 57 58 60 61 63 65 66
29 29 29 30 30 31 32 33 34 35 35 36 37 38 39 40 42 43 44 46 47 48 49 50 51 52 54 55 56 57 58 60 62 63 61 60 60 60 62 63 64 65 67
30 30 31 31 32 33 34 35 36 37 37 38 39 40 41 42 44 45 46 48 49 50 51 52 53 55 56 57 59 60 61 62 63 65 65 65 65 64 65 65 66 67 68
Wind_Direction
257 259 259 261 263 263 264 266 267 268 270 271 271 272 273 273 273 273 273 273 273 272 272 272 272 272 272 272 271 270 269 268 267 266 266 265 265 265 264 263 263 262 260
259 261 264 264 265 267 268 269 270 270 271 271 272 273 273 273 273 273 273 272 272 272 272 271 271 272 272 271 270 270 269 268 267 266 266 265 265 264 263 263 263 262 261
263 266 268 269 270 270 270 271 271 272 273 274 274 274 275 275 275 274 274 273 273 273 273 273 272 272 271 270 270 269 269 269 268 267 267 266 265 264 263 262 262 261 261
269 270 272 274 274 274 273 273 274 274 275 276 277 277 277 277 276 275 275 274 274 274 273 273 273 273 272 271 270 270 269 269 269 269 268 267 266 265 265 264 263 262 262
277 276 277 278 278 277 276 276 277 277 278 279 279 279 278 278 277 276 276 276 276 275 275 274 273 273 272 272 272 271 271 270 270 270 269 268 267 267 266 265 264 263 262
284 282 282 281 280 280 280 279 278 279 280 280 280 280 280 279 279 279 278 278 277 277 276 275 274 273 273 273 273 272 272 271 271 271 270 270 269 268 267 266 266 265 264
289 287 286 285 285 284 283 282 281 280 281 281 281 281 281 281 281 281 281 280 279 278 277 277 276 275 274 275 274 274 273 272 272 271 271 270 270 269 268 267 266 265 265
293 291 289 287 286 286 286 285 284 283 283 283 282 282 282 282 282 282 281 281 280 279 278 278 277 277 277 276 276 275 274 274 273 273 272 271 271 270 269 268 267 266 265
295 294 292 290 288 287 287 287 286 285 285 285 284 284 284 284 284 283 283 282 281 281 281 280 279 278 278 278 277 276 276 275 274 274 273 272 271 270 269 269 268 267 267
297 296 295 293 291 289 288 288 288 288 288 287 287 287 286 285 285 285 285 284 284 283 283 282 281 280 279 279 278 277 276 276 275 274 273 272 271 271 270 269 268 268 267
298 298 297 296 294 292 290 290 289 289 289 289 289 288 288 287 287 286 286 286 285 284 284 283 282 281 281 280 279 278 277 276 276 275 274 273 272 271 270 269 268 268 267
298 298 297 297 296 295 293 292 292 291 291 291 290 290 289 288 287 287 286 286 285 284 284 283 283 282 282 281 280 279 278 277 276 275 274 274 273 272 271 270 269 268 267
297 297 296 296 296 296 295 294 293 292 292 291 291 291 290 290 289 288 288 287 286 285 285 284 284 283 282 282 281 280 279 279 277 276 275 274 274 273 272 272 271 270 269
296 297 297 296 296 295 294 294 292 292 292 292 292 291 291 291 290 290 289 289 288 288 287 286 285 285 284 283 283 282 282 281 280 279 278 276 275 275 274 273 272 272 271
296 296 296 296 296 295 295 294 294 293 293 293 293 293 293 293 292 292 291 291 290 289 288 288 287 286 286 285 284 284 283 283 282 281 280 278 277 276 275 274 274 273 272
295 296 296 296 295 295 295 295 294 294 294 293 293 294 293 293 293 293 293 292 292 291 290 289 288 288 287 287 286 286 285 284 283 282 281 281 280 279 277 276 276 275 274
295 296 296 296 295 295 294 294 294 294 295 295 295 295 294 294 294 294 294 293 292 292 291 290 290 289 288 288 287 287 286 285 284 283 282 282 281 280 279 278 277 277 276
294 295 295 295 295 295 295 295 295 295 295 295 294 294 294 294 294 294 294 293 293 292 291 291 290 290 289 288 288 287 286 286 285 284 283 283 282 281 280 279 278 278 277
293 294 294 294 294 295 296 296 296 296 296 296 295 295 295 294 294 294 294 293 292 292 291 291 290 289 289 288 288 288 287 287 286 285 284 284 283 282 281 281 280 279 278
292 293 293 292 293 294 294 295 295 295 295 295 295 295 295 295 295 294 294 293 292 292 291 291 290 290 289 288 288 287 287 286 286 285 285 284 283 283 282 281 281 280 279
291 292 292 291 291 292 293 294 294 294 294 295 295 295 295 295 295 294 294 294 293 293 293 292 292 291 291 290 288 287 287 287 286 286 285 284 284 283 282 281 281 280 279
289 290 290 291 291 292 293 293 294 295 295 296 296 296 296 295 295 295 295 295 294 294 294 294 293 292 292 291 290 288 286 285 286 286 286 286 285 284 284 283 282 281 279
289 289 290 291 292 292 293 294 294 295 295 296 297 297 297 296 296 296 296 295 295 295 295 295 294 293 293 292 292 290 289 286 284 283 284 284 284 284 284 283 283 282 281
288 289 290 291 291 292 293 294 295 295 296 297 297 297 297 297 297 297 297 297 297 297 296 296 296 295 294 294 293 293 292 291 289 287 285 284 284 283 283 282 282 281 281
288 289 289 290 292 293 294 294 295 296 297 298 298 298 298 298 298 299 299 299 299 298 297 297 296 296 296 295 295 294 294 293 292 291 289 288 287 286 285 285 284 282 281
287 287 289 291 292 294 294 295 296 297 298 298 299 299 299 299 299 300 300 300 299 299 298 298 298 297 297 297 296 296 295 294 293 293 292 290 289 288 288 287 285 284 282
Height
5870 5870 5870 5870 5870 5870 5870 5870 5870 5870 5870 5870 5870 5870 5869 5869 5869 5869 5869 5869 5869 5869 5869 5869 5869 5869 5869 5869 5869 5868 5868 5869 5869 5869 5869 5869 5869 5870 5870 5870 5870 5871 5871
5868 5868 5868 5868 5868 5868 5868 5868 5868 5868 5867 5867 5867 5867 5867 5866 5866 5866 5866 5866 5866 5866 5866 5866 5865 5865 5865 5865 5865 5865 5865 5865 5865 5865 5865 5865 5866 5866 5866 5866 5866 5867 5867
5867 5867 5867 5866 5866 5866 5866 5866 5866 5865 5865 5865 5864 5864 5863 5863 5863 5863 5862 5863 5862 5862 5862 5862 5862 5862 5862 5862 5861 5861 5861 5862 5861 5861 5862 5862 5862 5862 5862 5862 5862 5862 5863
5865 5865 5865 5864 5864 5864 5864 5864 5863 5863 5862 5862 5861 5861 5860 5860 5860 5860 5859 5859 5859 5859 5859 5859 5858 5858 5858 5858 5858 5858 5858 5858 5858 5857 5857 5857 5858 5858 5858 5858 5858 5858 5858
5863 5863 5863 5863 5862 5862 5861 5861 5861 5860 5859 5859 5858 5858 5857 5857 5857 5856 5856 5856 5855 5855 5855 5855 5854 5854 5854 5854 5854 5854 5853 5853 5853 5853 5853 5853 5853 5853 5853 5853 5853 5854 5854
5862 5861 5861 5861 5860 5859 5859 5858 5858 5857 5857 5856 5855 5855 5854 5854 5853 5853 5852 5852 5852 5851 5851 5851 5850 5850 5850 5850 5850 5849 5849 5849 5849 5849 5849 5849 5849 5848 5848 5848 5848 5849 5849
5860 5859 5859 5858 5858 5857 5856 5856 5855 5854 5853 5853 5852 5851 5851 5850 5850 5849 5849 5848 5848 5847 5847 5846 5846 5846 5845 5845 5845 5845 5845 5845 5844 5844 5844 5844 5844 5844 5843 5843 5844 5844 5844
5858 5857 5857 5856 5855 5854 5853 5853 5852 5851 5850 5849 5849 5848 5847 5846 5846 5845 5845 5844 5844 5843 5843 5842 5842 5841 5841 5841 5840 5840 5840 5840 5839 5839 5839 5839 5838 5838 5838 5838 5838 5838 5839
5856 5855 5854 5853 5852 5851 5850 5850 5849 5848 5847 5846 5845 5844 5843 5842 5842 5841 5840 5840 5839 5839 5838 5838 5837 5837 5836 5836 5835 5835 5834 5834 5834 5834 5833 5833 5833 5833 5833 5833 5833 5833 5833
5854 5853 5852 5851 5850 5848 5847 5846 5845 5844 5843 5842 5841 5840 5839 5838 5838 5837 5836 5835 5835 5834 5833 5833 5832 5832 5831 5831 5830 5829 5829 5828 5828 5828 5827 5827 5827 5827 5826 5826 5826 5826 5827
5851 5850 5849 5848 5847 5845 5844 5843 5842 5841 5840 5839 5837 5836 5835 5834 5833 5832 5831 5831 5830 5829 5828 5827 5827 5826 5825 5825 5824 5823 5823 5822 5822 5821 5821 5821 5820 5820 5820 5819 5819 5819 5819
5848 5847 5846 5845 5843 5842 5841 5839 5838 5837 5836 5835 5833 5832 5831 5830 5829 5828 5827 5826 5824 5824 5823 5822 5821 5820 5819 5818 5818 5817 5816 5816 5815 5814 5814 5813 5813 5812 5812 5812 5812 5811 5811
5845 5844 5843 5841 5840 5838 5837 5836 5834 5833 5832 5831 5829 5828 5826 5825 5824 5823 5821 5820 5819 5818 5817 5816 5815 5814 5813 5812 5811 5810 5809 5809 5808 5807 5806 5806 5805 5805 5804 5804 5803 5803 5803
5842 5841 5839 5838 5836 5835 5833 5832 5831 5829 5828 5826 5825 5823 5822 5820 5819 5818 5816 5815 5814 5812 5811 5810 5808 5807 5806 5805 5804 5803 5802 5801 5800 5799 5798 5797 5797 5796 5795 5795 5794 5794 5794
5839 5837 5835 5834 5832 5831 5829 5828 5826 5825 5823 5822 5820 5819 5817 5815 5814 5812 5811 5809 5808 5807 5805 5804 5802 5801 5800 5798 5797 5796 5795 5793 5792 5791 5790 5788 5788 5787 5786 5785 5785 5784 5784
5835 5833 5832 5830 5828 5827 5825 5824 5822 5820 5819 5817 5816 5814 5812 5810 5809 5807 5805 5804 5802 5800 5799 5797 5796 5794 5793 5791 5790 5788 5787 5785 5784 5782 5781 5779 5778 5777 5776 5775 5775 5774 5773
5831 5830 5828 5826 5824 5823 5821 5819 5818 5816 5814 5812 5811 5809 5807 5805 5803 5801 5800 5798 5796 5794 5792 5791 5789 5787 5785 5784 5782 5780 5779 5777 5775 5773 5771 5770 5768 5767 5766 5765 5764 5763 5762
5827 5825 5824 5822 5820 5818 5817 5815 5813 5811 5809 5807 5806 5804 5802 5800 5798 5796 5794 5792 5790 5787 5785 5784 5782 5780 5778 5776 5774 5772 5770 5768 5766 5763 5762 5760 5758 5756 5754 5753 5752 5751 5750
5823 5821 5819 5818 5816 5814 5812 5810 5808 5806 5804 5802 5800 5798 5796 5794 5792 5790 5788 5785 5783 5781 5778 5776 5774 5772 5770 5767 5765 5763 5761 5758 5756 5753 5751 5749 5746 5745 5743 5741 5739 5738 5737
5819 5817 5815 5813 5811 5809 5807 5805 5803 5801 5799 5797 5795 5793 5790 5788 5786 5783 5781 5778 5776 5773 5771 5768 5766 5763 5760 5758 5756 5754 5751 5748 5745 5743 5740 5737 5734 5732 5730 5728 5726 5724 5723
5814 5812 5810 5808 5807 5805 5802 5800 5798 5796 5794 5791 5789 5787 5784 5781 5779 5776 5773 5771 5768 5765 5762 5759 5756 5753 5750 5747 5746 5744 5741 5738 5734 5731 5728 5725 5722 5719 5717 5714 5712 5710 5708
5809 5807 5805 5803 5801 5799 5797 5795 5793 5790 5788 5785 5782 5780 5777 5774 5771 5768 5765 5762 5759 5756 5753 5749 5746 5743 5739 5735 5733 5731 5730 5729 5724 5721 5716 5712 5709 5705 5702 5699 5697 5694 5692
5804 5802 5800 5798 5796 5794 5792 5789 5787 5784 5781 5778 5776 5772 5769 5766 5763 5760 5757 5753 5750 5746 5743 5739 5735 5732 5728 5724 5719 5716 5713 5713 5712 5711 5706 5701 5696 5692 5688 5684 5681 5678 5675
5798 5796 5794 5792 5790 5788 5785 5783 5780 5777 5774 5771 5768 5765 5761 5758 5755 5751 5747 5744 5740 5736 5732 5728 5724 5720 5716 5712 5707 5702 5698 5694 5691 5692 5692 5688 5683 5679 5674 5670 5666 5661 5658
5792 5791 5788 5786 5784 5781 5779 5776 5773 5770 5767 5764 5760 5757 5753 5749 5746 5742 5738 5734 5729 5725 5721 5716 5712 5707 5703 5698 5694 5689 5684 5679 5674 5670 5670 5669 5666 5662 5657 5653 5648 5644 5639
5786 5784 5782 5780 5777 5775 5772 5769 5766 5763 5759 5756 5752 5748 5744 5740 5736 5732 5727 5723 5718 5714 5709 5704 5699 5694 5689 5684 5679 5674 5669 5664 5659 5653 5650 5649 5646 5643 5638 5634 5629 5624 5619